FFT4818 KATL-KJFK

Flight info

Callsign FFT4818
Flight time 1h 42m
Altitude 37000
Route PHIIL3 HRTWL Q64 SAWED Q108 SIE CAMRN5
Aircraft A20N/M-SDE2E3FGHIRWXY/LB1

Departure

Time 2026-05-06 23:52
Airport Hartsfield Jackson Atlanta International Airport (KATL)

Arrival

Time 2026-05-07 01:35
Airport John F. Kennedy International Airport (KJFK)
Time Latitude Longitude Altitude Speed Heading
2026-05-06 23:30 33.64300 -84.42526 1015 ft 0 kts 270°
2026-05-06 23:41 33.64300 -84.42524 1015 ft 2 kts 270°
2026-05-06 23:42 33.64300 -84.42506 1015 ft 2 kts 270°
2026-05-06 23:42 33.64300 -84.42488 1015 ft 2 kts 270°
2026-05-06 23:42 33.64300 -84.42470 1015 ft 2 kts 270°
2026-05-06 23:42 33.64300 -84.42454 1014 ft 1 kts 266°
2026-05-06 23:43 33.64300 -84.42452 1014 ft 1 kts 264°
2026-05-06 23:43 33.64301 -84.42443 1014 ft 1 kts 253°
2026-05-06 23:43 33.64303 -84.42434 1014 ft 1 kts 240°
2026-05-06 23:43 33.64307 -84.42426 1014 ft 1 kts 230°
2026-05-06 23:44 33.64312 -84.42419 1014 ft 1 kts 219°
2026-05-06 23:44 33.64315 -84.42416 1014 ft 0 kts 215°
2026-05-06 23:45 33.64312 -84.42417 1014 ft 1 kts 199°
2026-05-06 23:45 33.64296 -84.42418 1014 ft 4 kts 184°
2026-05-06 23:45 33.64256 -84.42418 1013 ft 7 kts 180°
2026-05-06 23:46 33.64207 -84.42387 1011 ft 10 kts 118°
2026-05-06 23:46 33.64196 -84.42306 1010 ft 5 kts 90°
2026-05-06 23:46 33.64185 -84.42253 1009 ft 8 kts 126°
2026-05-06 23:46 33.64155 -84.42240 1009 ft 1 kts 174°
2026-05-06 23:47 33.64127 -84.42239 1010 ft 9 kts 187°
2026-05-06 23:47 33.64054 -84.42240 1009 ft 12 kts 176°
2026-05-06 23:47 33.63972 -84.42240 1007 ft 12 kts 185°
2026-05-06 23:47 33.63880 -84.42240 1005 ft 15 kts 175°
2026-05-06 23:48 33.63799 -84.42232 1005 ft 8 kts 181°
2026-05-06 23:48 33.63746 -84.42235 1005 ft 8 kts 181°
2026-05-06 23:48 33.63688 -84.42230 1005 ft 8 kts 167°
2026-05-06 23:48 33.63647 -84.42183 1005 ft 10 kts 114°
2026-05-06 23:49 33.63606 -84.42100 1003 ft 14 kts 122°
2026-05-06 23:49 33.63582 -84.41983 999 ft 15 kts 90°
2026-05-06 23:49 33.63582 -84.41841 995 ft 19 kts 89°
2026-05-06 23:49 33.63581 -84.41670 993 ft 22 kts 90°
2026-05-06 23:50 33.63581 -84.41473 993 ft 26 kts 90°
2026-05-06 23:50 33.63581 -84.41117 988 ft 15 kts 89°
2026-05-06 23:50 33.63583 -84.40978 987 ft 15 kts 90°
2026-05-06 23:51 33.63531 -84.40905 993 ft 13 kts 181°
2026-05-06 23:51 33.63471 -84.40935 991 ft 8 kts 254°
2026-05-06 23:51 33.63471 -84.41028 988 ft 22 kts 270°
2026-05-06 23:51 33.63468 -84.41478 992 ft 87 kts 271°
2026-05-06 23:52 33.63471 -84.42437 1006 ft 139 kts 270°
2026-05-06 23:52 33.63462 -84.43738 1219 ft 162 kts 267°
2026-05-06 23:52 33.63465 -84.45049 1955 ft 152 kts 267°
2026-05-06 23:52 33.63442 -84.46287 2691 ft 144 kts 264°
2026-05-06 23:53 33.63306 -84.47506 3208 ft 150 kts 252°
2026-05-06 23:53 33.62931 -84.48701 3694 ft 161 kts 242°
2026-05-06 23:53 33.62422 -84.49985 4209 ft 177 kts 242°
2026-05-06 23:53 33.61797 -84.51359 4634 ft 200 kts 239°
2026-05-06 23:54 33.61053 -84.52894 4997 ft 228 kts 240°
2026-05-06 23:54 33.60250 -84.54652 5607 ft 243 kts 242°
2026-05-06 23:54 33.59426 -84.56424 6496 ft 247 kts 236°
2026-05-06 23:54 33.58178 -84.57863 7355 ft 255 kts 212°
2026-05-06 23:55 33.56430 -84.58432 8197 ft 268 kts 186°
2026-05-06 23:55 33.54549 -84.58428 8943 ft 277 kts 186°
2026-05-06 23:55 33.52606 -84.58423 9878 ft 278 kts 187°
2026-05-06 23:55 33.50652 -84.58433 10668 ft 281 kts 186°
2026-05-06 23:56 33.48704 -84.58054 11448 ft 297 kts 165°
2026-05-06 23:56 33.46928 -84.56677 12209 ft 316 kts 141°
2026-05-06 23:56 33.45666 -84.54432 12911 ft 334 kts 116°
2026-05-06 23:56 33.45170 -84.51688 13590 ft 348 kts 96°
2026-05-06 23:57 33.45200 -84.48684 13845 ft 371 kts 88°
2026-05-06 23:57 33.45381 -84.45525 14061 ft 392 kts 88°
2026-05-06 23:57 33.45524 -84.42180 14435 ft 404 kts 90°
2026-05-06 23:57 33.45592 -84.38829 15048 ft 408 kts 91°
2026-05-06 23:58 33.45652 -84.35396 15647 ft 414 kts 87°
2026-05-06 23:58 33.46067 -84.31943 16247 ft 419 kts 77°
2026-05-06 23:58 33.46865 -84.28603 16839 ft 423 kts 71°
2026-05-06 23:58 33.47737 -84.25205 17457 ft 427 kts 71°
2026-05-06 23:59 33.48600 -84.21808 18028 ft 432 kts 71°
2026-05-06 23:59 33.49479 -84.18326 18581 ft 436 kts 71°
2026-05-06 23:59 33.50353 -84.14856 19088 ft 440 kts 71°
2026-05-06 23:59 33.51246 -84.11314 19566 ft 445 kts 71°
2026-05-07 00:00 33.52147 -84.07731 20032 ft 450 kts 71°
2026-05-07 00:00 33.53058 -84.04111 20547 ft 454 kts 71°
2026-05-07 00:00 33.53974 -84.00467 21037 ft 458 kts 71°
2026-05-07 00:00 33.54576 -83.98067 21374 ft 460 kts 70°
2026-05-07 00:01 33.55809 -83.93150 22013 ft 466 kts 70°
2026-05-07 00:01 33.56434 -83.90653 22329 ft 469 kts 70°
2026-05-07 00:01 33.57379 -83.86876 22826 ft 473 kts 70°
2026-05-07 00:01 33.58747 -83.81859 23470 ft 476 kts 63°
2026-05-07 00:02 33.59650 -83.79450 23752 ft 476 kts 61°
2026-05-07 00:02 33.61046 -83.75807 24180 ft 480 kts 61°
2026-05-07 00:02 33.62427 -83.72181 24595 ft 483 kts 61°
2026-05-07 00:02 33.63831 -83.68485 25025 ft 485 kts 61°
2026-05-07 00:03 33.65196 -83.64745 25432 ft 490 kts 65°
2026-05-07 00:03 33.66199 -83.60798 25832 ft 497 kts 75°
2026-05-07 00:03 33.66941 -83.56764 26227 ft 500 kts 75°
2026-05-07 00:03 33.67694 -83.52714 26592 ft 503 kts 75°
2026-05-07 00:04 33.68467 -83.48587 26984 ft 505 kts 75°
2026-05-07 00:04 33.69241 -83.44452 27354 ft 508 kts 75°
2026-05-07 00:04 33.70019 -83.40289 27752 ft 510 kts 75°
2026-05-07 00:04 33.70789 -83.36156 28132 ft 513 kts 75°
2026-05-07 00:05 33.71559 -83.32006 28471 ft 515 kts 75°
2026-05-07 00:05 33.72347 -83.27755 28827 ft 517 kts 75°
2026-05-07 00:05 33.73124 -83.23552 29183 ft 519 kts 75°
2026-05-07 00:05 33.73912 -83.19317 29510 ft 521 kts 73°
2026-05-07 00:06 33.74995 -83.15137 29817 ft 520 kts 65°
2026-05-07 00:06 33.76515 -83.11174 30127 ft 518 kts 57°
2026-05-07 00:06 33.78370 -83.07485 30381 ft 518 kts 53°
2026-05-07 00:06 33.80277 -83.03822 30649 ft 521 kts 53°
2026-05-07 00:07 33.82204 -83.00100 30909 ft 523 kts 53°
2026-05-07 00:07 33.84106 -82.96414 31178 ft 525 kts 53°
2026-05-07 00:07 33.86049 -82.92643 31516 ft 526 kts 53°
2026-05-07 00:07 33.87956 -82.88937 31856 ft 526 kts 53°
2026-05-07 00:08 33.89888 -82.85182 32207 ft 526 kts 53°
2026-05-07 00:08 33.91797 -82.81468 32540 ft 526 kts 52°
2026-05-07 00:08 33.93734 -82.77697 32867 ft 526 kts 52°
2026-05-07 00:08 33.95672 -82.73920 33188 ft 526 kts 52°
2026-05-07 00:09 33.97577 -82.70204 33512 ft 526 kts 52°
2026-05-07 00:09 33.99503 -82.66440 33825 ft 526 kts 52°
2026-05-07 00:09 34.01408 -82.62685 34102 ft 526 kts 52°
2026-05-07 00:09 34.03301 -82.58936 34356 ft 527 kts 52°
2026-05-07 00:10 34.05206 -82.55158 34594 ft 527 kts 52°
2026-05-07 00:10 34.07127 -82.51347 34822 ft 527 kts 52°
2026-05-07 00:10 34.09023 -82.47585 35033 ft 528 kts 52°
2026-05-07 00:10 34.10941 -82.43774 35242 ft 529 kts 52°
2026-05-07 00:11 34.12833 -82.40015 35468 ft 529 kts 52°
2026-05-07 00:11 34.14748 -82.36202 35684 ft 529 kts 52°
2026-05-07 00:11 34.16646 -82.32422 35883 ft 530 kts 52°
2026-05-07 00:11 34.18568 -82.28588 36069 ft 530 kts 52°
2026-05-07 00:12 34.20468 -82.24797 36270 ft 531 kts 52°
2026-05-07 00:12 34.22386 -82.20962 36460 ft 531 kts 51°
2026-05-07 00:12 34.24288 -82.17157 36646 ft 532 kts 51°
2026-05-07 00:12 34.26207 -82.13319 36819 ft 532 kts 51°
2026-05-07 00:13 34.28115 -82.09526 36972 ft 533 kts 51°
2026-05-07 00:13 34.30041 -82.05706 36971 ft 532 kts 51°
2026-05-07 00:13 34.33877 -81.98084 36963 ft 531 kts 51°
2026-05-07 00:14 34.37711 -81.90445 36962 ft 531 kts 51°
2026-05-07 00:14 34.41562 -81.82750 36962 ft 531 kts 51°
2026-05-07 00:15 34.45369 -81.75127 36961 ft 531 kts 51°
2026-05-07 00:15 34.49185 -81.67467 36980 ft 532 kts 51°
2026-05-07 00:16 34.52997 -81.59802 36973 ft 532 kts 51°
2026-05-07 00:16 34.56834 -81.52069 36970 ft 532 kts 51°
2026-05-07 00:17 34.60640 -81.44383 36967 ft 532 kts 51°
2026-05-07 00:17 34.64445 -81.36681 36967 ft 532 kts 51°
2026-05-07 00:18 34.68241 -81.28979 36973 ft 532 kts 51°
2026-05-07 00:18 34.72028 -81.21279 36972 ft 532 kts 52°
2026-05-07 00:19 34.75812 -81.13569 36975 ft 532 kts 52°
2026-05-07 00:19 34.79574 -81.05781 36973 ft 535 kts 56°
2026-05-07 00:20 34.82676 -80.97556 36965 ft 539 kts 59°
2026-05-07 00:20 34.85751 -80.89242 36964 ft 538 kts 59°
2026-05-07 00:21 34.88815 -80.80932 36963 ft 539 kts 59°
2026-05-07 00:21 34.91886 -80.72570 36961 ft 539 kts 59°
2026-05-07 00:22 34.94926 -80.64267 36957 ft 539 kts 59°
2026-05-07 00:22 34.97970 -80.55931 36953 ft 539 kts 59°
2026-05-07 00:23 35.01038 -80.47509 36954 ft 540 kts 59°
2026-05-07 00:23 35.04074 -80.39151 36953 ft 540 kts 59°
2026-05-07 00:24 35.07113 -80.30763 36952 ft 541 kts 59°
2026-05-07 00:24 35.10149 -80.22360 36953 ft 542 kts 59°
2026-05-07 00:25 35.13191 -80.13920 36957 ft 543 kts 59°
2026-05-07 00:25 35.16226 -80.05476 36958 ft 543 kts 59°
2026-05-07 00:26 35.19254 -79.97033 36966 ft 544 kts 59°
2026-05-07 00:26 35.22305 -79.88516 36970 ft 545 kts 59°
2026-05-07 00:27 35.25323 -79.80074 36974 ft 546 kts 59°
2026-05-07 00:27 35.28370 -79.71525 36980 ft 546 kts 59°
2026-05-07 00:28 35.31396 -79.63013 36984 ft 547 kts 59°
2026-05-07 00:28 35.34430 -79.54454 36990 ft 547 kts 59°
2026-05-07 00:29 35.37450 -79.45911 36990 ft 547 kts 59°
2026-05-07 00:30 35.43492 -79.28746 36983 ft 548 kts 59°
2026-05-07 00:30 35.46493 -79.20186 36977 ft 547 kts 59°
2026-05-07 00:31 35.49493 -79.11606 36980 ft 547 kts 59°
2026-05-07 00:31 35.52488 -79.03006 36981 ft 547 kts 59°
2026-05-07 00:32 35.55469 -78.94430 36977 ft 547 kts 59°
2026-05-07 00:32 35.58446 -78.85844 36969 ft 547 kts 59°
2026-05-07 00:33 35.61441 -78.77187 36964 ft 547 kts 60°
2026-05-07 00:33 35.64401 -78.68596 36944 ft 547 kts 60°
2026-05-07 00:34 35.67496 -78.60103 36953 ft 538 kts 52°
2026-05-07 00:34 35.71125 -78.52071 36957 ft 537 kts 51°
2026-05-07 00:35 35.74863 -78.44165 36947 ft 536 kts 50°
2026-05-07 00:35 35.78679 -78.36242 36949 ft 535 kts 50°
2026-05-07 00:36 35.82465 -78.28377 36954 ft 535 kts 50°
2026-05-07 00:36 35.86254 -78.20485 36968 ft 535 kts 50°
2026-05-07 00:37 35.90057 -78.12541 36968 ft 535 kts 50°
2026-05-07 00:37 35.93820 -78.04664 36955 ft 536 kts 50°
2026-05-07 00:38 35.97598 -77.96737 36953 ft 535 kts 50°
2026-05-07 00:38 36.01380 -77.88782 36960 ft 535 kts 50°
2026-05-07 00:39 36.05120 -77.80897 36954 ft 535 kts 50°
2026-05-07 00:39 36.08887 -77.72937 36950 ft 535 kts 50°
2026-05-07 00:40 36.12632 -77.65005 36955 ft 534 kts 51°
2026-05-07 00:40 36.16363 -77.57083 36957 ft 534 kts 51°
2026-05-07 00:41 36.20104 -77.49123 36948 ft 534 kts 51°
2026-05-07 00:41 36.23821 -77.41191 36946 ft 533 kts 51°
2026-05-07 00:42 36.27544 -77.33231 36949 ft 533 kts 51°
2026-05-07 00:42 36.31537 -77.25582 36949 ft 519 kts 40°
2026-05-07 00:43 36.33887 -77.22300 36948 ft 508 kts 33°
2026-05-07 00:43 36.36456 -77.19337 36949 ft 500 kts 29°
2026-05-07 00:43 36.41634 -77.13560 36944 ft 501 kts 30°
2026-05-07 00:44 36.46803 -77.07758 36939 ft 501 kts 30°
2026-05-07 00:44 36.51983 -77.01936 36944 ft 501 kts 30°
2026-05-07 00:45 36.57155 -76.96117 36954 ft 501 kts 30°
2026-05-07 00:45 36.62336 -76.90278 36960 ft 502 kts 30°
2026-05-07 00:46 36.67502 -76.84444 36964 ft 502 kts 30°
2026-05-07 00:46 36.72655 -76.78613 36965 ft 502 kts 30°
2026-05-07 00:47 36.76982 -76.73708 36960 ft 502 kts 30°
2026-05-07 00:47 36.82992 -76.66883 36958 ft 502 kts 30°
2026-05-07 00:48 36.87301 -76.61980 36940 ft 503 kts 30°
2026-05-07 00:48 36.92489 -76.56066 36937 ft 503 kts 30°
2026-05-07 00:49 36.97637 -76.50187 36926 ft 503 kts 30°
2026-05-07 00:49 37.02803 -76.44276 36905 ft 502 kts 30°
2026-05-07 00:50 37.07931 -76.38397 36909 ft 502 kts 30°
2026-05-07 00:50 37.13103 -76.32456 36905 ft 502 kts 30°
2026-05-07 00:51 37.18239 -76.26545 36917 ft 502 kts 30°
2026-05-07 00:51 37.23367 -76.20632 36915 ft 502 kts 30°
2026-05-07 00:52 37.28498 -76.14704 36918 ft 502 kts 30°
2026-05-07 00:52 37.33636 -76.08757 36925 ft 502 kts 30°
2026-05-07 00:53 37.38751 -76.02824 36929 ft 501 kts 30°
2026-05-07 00:53 37.43898 -75.96844 36925 ft 501 kts 31°
2026-05-07 00:54 37.49007 -75.90894 36925 ft 501 kts 31°
2026-05-07 00:54 37.54264 -75.85265 36918 ft 486 kts 21°
2026-05-07 00:55 37.59939 -75.80905 36912 ft 478 kts 17°
2026-05-07 00:55 37.65657 -75.76616 36908 ft 478 kts 17°
2026-05-07 00:56 37.71416 -75.72285 36923 ft 479 kts 17°
2026-05-07 00:56 37.77111 -75.68000 36921 ft 479 kts 17°
2026-05-07 00:57 37.82853 -75.63673 36916 ft 480 kts 17°
2026-05-07 00:57 37.88463 -75.58949 36917 ft 487 kts 21°
2026-05-07 00:58 37.94045 -75.54092 36921 ft 488 kts 21°
2026-05-07 00:58 37.99670 -75.49194 36922 ft 488 kts 21°
2026-05-07 00:59 38.08050 -75.41941 36919 ft 485 kts 20°
2026-05-07 01:00 38.13771 -75.37328 36918 ft 484 kts 19°
2026-05-07 01:00 38.19437 -75.32751 36906 ft 485 kts 19°
2026-05-07 01:00 38.22326 -75.30588 36907 ft 474 kts 13°
2026-05-07 01:01 38.25267 -75.28909 36915 ft 461 kts
2026-05-07 01:01 38.28276 -75.27660 36917 ft 449 kts
2026-05-07 01:01 38.31273 -75.26834 36889 ft 438 kts 354°
2026-05-07 01:01 38.34305 -75.26216 36636 ft 442 kts 355°
2026-05-07 01:02 38.37347 -75.25587 36169 ft 448 kts 355°
2026-05-07 01:02 38.40448 -75.24933 35704 ft 450 kts 355°
2026-05-07 01:02 38.43510 -75.24282 35435 ft 451 kts 355°
2026-05-07 01:02 38.46643 -75.23618 35196 ft 455 kts 355°
2026-05-07 01:03 38.49754 -75.22960 34976 ft 457 kts 355°
2026-05-07 01:03 38.56034 -75.21638 34905 ft 458 kts 355°
2026-05-07 01:04 38.62326 -75.20313 34906 ft 459 kts 355°
2026-05-07 01:04 38.68619 -75.18523 34907 ft 479 kts
2026-05-07 01:04 38.71739 -75.16770 34903 ft 495 kts 16°
2026-05-07 01:05 38.74671 -75.14411 34905 ft 507 kts 25°
2026-05-07 01:05 38.80285 -75.08884 34900 ft 507 kts 26°
2026-05-07 01:06 38.85888 -75.03393 34904 ft 508 kts 26°
2026-05-07 01:06 38.91497 -74.97879 34873 ft 507 kts 26°
2026-05-07 01:06 38.94301 -74.95115 34525 ft 506 kts 26°
2026-05-07 01:07 38.97109 -74.92350 33870 ft 508 kts 26°
2026-05-07 01:07 38.99910 -74.89591 33028 ft 511 kts 27°
2026-05-07 01:07 39.02709 -74.86829 32234 ft 512 kts 27°
2026-05-07 01:07 39.05565 -74.84004 31380 ft 515 kts 27°
2026-05-07 01:08 39.08395 -74.81205 30467 ft 520 kts 27°
2026-05-07 01:08 39.11272 -74.78325 29683 ft 521 kts 29°
2026-05-07 01:08 39.14089 -74.75321 28652 ft 526 kts 31°
2026-05-07 01:08 39.16868 -74.72271 27806 ft 525 kts 32°
2026-05-07 01:09 39.19639 -74.69228 26772 ft 528 kts 32°
2026-05-07 01:09 39.22470 -74.66137 25756 ft 531 kts 32°
2026-05-07 01:09 39.25262 -74.63098 25048 ft 526 kts 32°
2026-05-07 01:09 39.28066 -74.60048 24386 ft 520 kts 32°
2026-05-07 01:10 39.30796 -74.57077 23993 ft 509 kts 32°
2026-05-07 01:10 39.33463 -74.54169 23686 ft 496 kts 32°
2026-05-07 01:10 39.36096 -74.51305 23036 ft 491 kts 32°
2026-05-07 01:10 39.38678 -74.48500 22421 ft 485 kts 32°
2026-05-07 01:11 39.41252 -74.45700 21823 ft 479 kts 32°
2026-05-07 01:11 39.43771 -74.42957 21227 ft 473 kts 32°
2026-05-07 01:11 39.46295 -74.40204 20654 ft 467 kts 32°
2026-05-07 01:11 39.48744 -74.37531 20073 ft 462 kts 33°
2026-05-07 01:12 39.51216 -74.34829 19501 ft 457 kts 33°
2026-05-07 01:12 39.53608 -74.32212 18967 ft 451 kts 33°
2026-05-07 01:12 39.56003 -74.29589 18411 ft 446 kts 34°
2026-05-07 01:12 39.58337 -74.27030 18031 ft 437 kts 34°
2026-05-07 01:13 39.60625 -74.24512 17898 ft 420 kts 34°
2026-05-07 01:13 39.62817 -74.22096 17887 ft 413 kts 34°
2026-05-07 01:13 39.65003 -74.19700 17885 ft 418 kts 34°
2026-05-07 01:13 39.67222 -74.17263 17885 ft 411 kts 34°
2026-05-07 01:14 39.69340 -74.14921 17883 ft 394 kts 34°
2026-05-07 01:14 39.71412 -74.12630 17886 ft 388 kts 33°
2026-05-07 01:14 39.73483 -74.10354 17882 ft 394 kts 33°
2026-05-07 01:14 39.75564 -74.08063 17883 ft 393 kts 34°
2026-05-07 01:15 39.77639 -74.05768 17887 ft 386 kts 34°
2026-05-07 01:15 39.79645 -74.03537 17882 ft 370 kts 33°
2026-05-07 01:15 39.81587 -74.01377 17583 ft 364 kts 33°
2026-05-07 01:15 39.83500 -73.99283 17145 ft 361 kts 30°
2026-05-07 01:16 39.85592 -73.97523 16694 ft 352 kts 20°
2026-05-07 01:16 39.87780 -73.96246 16239 ft 340 kts
2026-05-07 01:16 39.90067 -73.95973 15768 ft 323 kts 348°
2026-05-07 01:16 39.92349 -73.96115 15023 ft 333 kts 350°
2026-05-07 01:17 39.94704 -73.95658 14259 ft 360 kts 12°
2026-05-07 01:17 39.96944 -73.94029 13708 ft 375 kts 35°
2026-05-07 01:17 39.98754 -73.91532 13249 ft 378 kts 48°
2026-05-07 01:17 40.00335 -73.88858 12921 ft 372 kts 50°
2026-05-07 01:18 40.01904 -73.86235 12793 ft 359 kts 48°
2026-05-07 01:18 40.03403 -73.83681 12599 ft 349 kts 49°
2026-05-07 01:18 40.04915 -73.81246 12225 ft 344 kts 40°
2026-05-07 01:18 40.06790 -73.79370 11826 ft 335 kts 27°
2026-05-07 01:19 40.08717 -73.77713 11450 ft 333 kts 27°
2026-05-07 01:19 40.10646 -73.76057 11099 ft 330 kts 27°
2026-05-07 01:19 40.12561 -73.74413 10742 ft 327 kts 27°
2026-05-07 01:19 40.14450 -73.72789 10397 ft 325 kts 27°
2026-05-07 01:20 40.16338 -73.71162 10047 ft 322 kts 27°
2026-05-07 01:20 40.18191 -73.69563 9693 ft 320 kts 27°
2026-05-07 01:20 40.20046 -73.67959 9311 ft 317 kts 27°
2026-05-07 01:20 40.21885 -73.66372 8925 ft 314 kts 27°
2026-05-07 01:21 40.23695 -73.64811 8532 ft 313 kts 27°
2026-05-07 01:21 40.25513 -73.63247 8171 ft 309 kts 27°
2026-05-07 01:21 40.27296 -73.61715 7791 ft 307 kts 27°
2026-05-07 01:21 40.29072 -73.60199 7416 ft 305 kts 27°
2026-05-07 01:22 40.30837 -73.58701 7070 ft 303 kts 27°
2026-05-07 01:22 40.32599 -73.57215 6703 ft 301 kts 27°
2026-05-07 01:22 40.34374 -73.55723 6339 ft 299 kts 27°
2026-05-07 01:22 40.36132 -73.54256 5987 ft 296 kts 27°
2026-05-07 01:23 40.37855 -73.52829 5614 ft 295 kts 27°
2026-05-07 01:23 40.39582 -73.51416 5267 ft 292 kts 27°
2026-05-07 01:23 40.41350 -73.50099 4897 ft 286 kts 15°
2026-05-07 01:23 40.43274 -73.49646 4448 ft 278 kts 358°
2026-05-07 01:24 40.45179 -73.49507 4134 ft 274 kts 357°
2026-05-07 01:24 40.47084 -73.49369 4026 ft 276 kts 357°
2026-05-07 01:24 40.49012 -73.49235 4013 ft 275 kts 357°
2026-05-07 01:24 40.50904 -73.49098 4004 ft 274 kts 357°
2026-05-07 01:25 40.52804 -73.48962 4005 ft 275 kts 357°
2026-05-07 01:25 40.54721 -73.48828 4012 ft 275 kts 357°
2026-05-07 01:25 40.56636 -73.48693 4011 ft 274 kts 357°
2026-05-07 01:25 40.58524 -73.48563 4005 ft 274 kts 357°
2026-05-07 01:26 40.60446 -73.48436 4011 ft 274 kts 357°
2026-05-07 01:26 40.62325 -73.48308 3922 ft 272 kts 357°
2026-05-07 01:26 40.64224 -73.48173 3610 ft 272 kts 357°
2026-05-07 01:26 40.66087 -73.48050 3293 ft 269 kts 357°
2026-05-07 01:27 40.67966 -73.47927 2905 ft 269 kts 357°
2026-05-07 01:27 40.69845 -73.47804 2579 ft 267 kts 357°
2026-05-07 01:27 40.71676 -73.47680 2233 ft 266 kts 357°
2026-05-07 01:27 40.73515 -73.47547 2038 ft 258 kts 357°
2026-05-07 01:28 40.75202 -73.47855 2005 ft 230 kts 329°
2026-05-07 01:28 40.76336 -73.49060 2001 ft 199 kts 296°
2026-05-07 01:28 40.76908 -73.50705 2009 ft 198 kts 287°
2026-05-07 01:28 40.77412 -73.52365 2006 ft 194 kts 287°
2026-05-07 01:29 40.77914 -73.54032 2005 ft 195 kts 287°
2026-05-07 01:29 40.78414 -73.55700 2007 ft 196 kts 287°
2026-05-07 01:29 40.78909 -73.57367 2003 ft 197 kts 287°
2026-05-07 01:29 40.79193 -73.58515 1996 ft 195 kts 275°
2026-05-07 01:30 40.78734 -73.60734 2005 ft 195 kts 238°
2026-05-07 01:30 40.78226 -73.61702 1999 ft 189 kts 237°
2026-05-07 01:30 40.77487 -73.63058 1997 ft 174 kts 237°
2026-05-07 01:30 40.76820 -73.64281 2036 ft 162 kts 237°
2026-05-07 01:31 40.76158 -73.65489 2003 ft 161 kts 237°
2026-05-07 01:31 40.75460 -73.66635 2005 ft 162 kts 230°
2026-05-07 01:31 40.74589 -73.67578 2004 ft 165 kts 219°
2026-05-07 01:31 40.73591 -73.68385 2007 ft 170 kts 215°
2026-05-07 01:32 40.72567 -73.69175 1874 ft 169 kts 217°
2026-05-07 01:32 40.71581 -73.69949 1645 ft 164 kts 216°
2026-05-07 01:32 40.70596 -73.70731 1420 ft 167 kts 215°
2026-05-07 01:32 40.69598 -73.71513 1193 ft 163 kts 214°
2026-05-07 01:33 40.68686 -73.72224 993 ft 144 kts 214°
2026-05-07 01:33 40.67873 -73.72865 790 ft 128 kts 214°
2026-05-07 01:33 40.67117 -73.73453 631 ft 127 kts 211°
2026-05-07 01:33 40.66353 -73.74048 465 ft 127 kts 211°
2026-05-07 01:34 40.65595 -73.74644 315 ft 128 kts 210°
2026-05-07 01:34 40.64834 -73.75238 134 ft 128 kts 211°
2026-05-07 01:34 40.64084 -73.75833 31 ft 121 kts 209°
2026-05-07 01:34 40.63484 -73.76298 24 ft 74 kts 211°
2026-05-07 01:35 40.63240 -73.76490 25 ft 11 kts 210°
2026-05-07 01:35 40.63154 -73.76558 20 ft 18 kts 211°
2026-05-07 01:35 40.63043 -73.76665 22 ft 20 kts 230°
2026-05-07 01:35 40.62965 -73.76810 20 ft 20 kts 239°
2026-05-07 01:36 40.62925 -73.76939 20 ft 14 kts 268°
2026-05-07 01:36 40.62967 -73.77056 20 ft 15 kts 299°
2026-05-07 01:36 40.63025 -73.77186 21 ft 18 kts 300°
2026-05-07 01:36 40.63092 -73.77329 21 ft 20 kts 303°
2026-05-07 01:37 40.63164 -73.77492 22 ft 21 kts 303°
2026-05-07 01:37 40.63231 -73.77632 24 ft 16 kts 301°
2026-05-07 01:37 40.63288 -73.77762 25 ft 18 kts 301°
2026-05-07 01:37 40.63359 -73.77832 22 ft 11 kts 17°
2026-05-07 01:38 40.63426 -73.77773 21 ft 13 kts 28°
2026-05-07 01:38 40.63519 -73.77702 20 ft 17 kts 31°
2026-05-07 01:38 40.63631 -73.77610 20 ft 21 kts 32°
2026-05-07 01:38 40.63763 -73.77508 19 ft 23 kts 29°
2026-05-07 01:39 40.63909 -73.77394 20 ft 25 kts 31°
2026-05-07 01:39 40.64067 -73.77270 21 ft 27 kts 30°
2026-05-07 01:39 40.64236 -73.77138 20 ft 25 kts 32°
2026-05-07 01:39 40.64371 -73.77032 20 ft 7 kts 30°
2026-05-07 01:40 40.64424 -73.76996 20 ft 11 kts 19°
2026-05-07 01:40 40.64513 -73.76986 20 ft 15 kts 358°
2026-05-07 01:40 40.64625 -73.76987 20 ft 18 kts 359°
2026-05-07 01:40 40.64744 -73.77052 20 ft 20 kts 320°
2026-05-07 01:41 40.64824 -73.77206 20 ft 22 kts 299°
2026-05-07 01:41 40.64906 -73.77383 20 ft 24 kts 300°
2026-05-07 01:41 40.64994 -73.77575 20 ft 26 kts 301°
2026-05-07 01:41 40.65086 -73.77784 19 ft 27 kts 302°
2026-05-07 01:42 40.65185 -73.78001 20 ft 26 kts 301°
2026-05-07 01:42 40.65262 -73.78171 21 ft 22 kts 301°
2026-05-07 01:42 40.65324 -73.78306 21 ft 17 kts 301°
2026-05-07 01:42 40.65356 -73.78408 20 ft 9 kts 264°
2026-05-07 01:43 40.65304 -73.78439 22 ft 9 kts 164°
2026-05-07 01:43 40.65239 -73.78402 20 ft 11 kts 162°
2026-05-07 01:43 40.65167 -73.78435 20 ft 12 kts 202°
2026-05-07 01:43 40.65089 -73.78473 20 ft 12 kts 197°
2026-05-07 01:44 40.65010 -73.78491 20 ft 9 kts 181°
2026-05-07 01:44 40.64972 -73.78469 20 ft 5 kts 109°
2026-05-07 01:44 40.64959 -73.78424 20 ft 0 kts 111°